Address 0x8b6791286b068e1d753f87c3a772d461a60a5b71

Overview

Balance:
20.982369639589451101 FTM

FTM Value:
$48.76 (@ $2.32/FTM)

Token:
Txn Hash Method
Block
From
To
Value [Txn Fee]
0xefbedde28e74d9a5ead14a54c96d7324cfe38b0f65b32428aec5cee2f75b8cd30xb3d16931195755342021-10-20 9:02:3157 mins ago0x8b6791286b068e1d753f87c3a772d461a60a5b71OUT 0xe836817fca0562b0e4cf6b819a12a1b1c8e216a40 FTM0.009695770584
0x54b98a268f5b9cee4fff39860b9f6865f9b78a507bcf65fa085cf5a5ab5f63460xb3d16931195704692021-10-20 7:45:082 hrs 14 mins ago0x8b6791286b068e1d753f87c3a772d461a60a5b71OUT 0xe836817fca0562b0e4cf6b819a12a1b1c8e216a40 FTM0.009483887344
0xe9a57d32fbf3a5bf5cff071b4b3451920db4382d2969a7e9710b5d2f18de8fc60xb3d16931195698752021-10-20 7:32:392 hrs 27 mins ago0x8b6791286b068e1d753f87c3a772d461a60a5b71OUT 0xe836817fca0562b0e4cf6b819a12a1b1c8e216a40 FTM0.053077005419
0x728e20b1a049fdb8dc8310fa3b9b1ba198ea2120210c21abf4f085c0df8fced30xb3d16931195678012021-10-20 6:56:163 hrs 3 mins ago0x8b6791286b068e1d753f87c3a772d461a60a5b71OUT 0xe836817fca0562b0e4cf6b819a12a1b1c8e216a40 FTM0.012988382238
0x427d616657fbe8d31f76eddc02202e66d712cbcda142bf1cf7248ac9af6a42ca0xb3d16931195650742021-10-20 6:10:093 hrs 49 mins ago0x8b6791286b068e1d753f87c3a772d461a60a5b71OUT 0xe836817fca0562b0e4cf6b819a12a1b1c8e216a40 FTM0.030408277728
0x8800980d4cf2a4093a895686084c43ee9722fcb087651b717d43979f0343b1f60xb3d16931195625342021-10-20 5:27:304 hrs 32 mins ago0x8b6791286b068e1d753f87c3a772d461a60a5b71OUT 0xe836817fca0562b0e4cf6b819a12a1b1c8e216a40 FTM0.028856125847
0xa9aae6c00051aca9ab47af73cc822ee9b7ee371652c2ecae04beff229e3543720xb3d16931195615332021-10-20 5:05:424 hrs 54 mins ago0x8b6791286b068e1d753f87c3a772d461a60a5b71OUT 0xe836817fca0562b0e4cf6b819a12a1b1c8e216a40 FTM0.014266410564
0xde15ed4e5d9531660300ff511facb60537e8b877fe06fc1d776915b7baf5b54b0xb3d16931195583742021-10-20 4:06:345 hrs 53 mins ago0x8b6791286b068e1d753f87c3a772d461a60a5b71OUT 0xe836817fca0562b0e4cf6b819a12a1b1c8e216a40 FTM0.018699441241
0x1efa38c72c7507db792ea7fd7d43e45f1343b7f33656081fbb30f1945d9554a10xb3d16931195578052021-10-20 3:56:506 hrs 3 mins ago0x8b6791286b068e1d753f87c3a772d461a60a5b71OUT 0xe836817fca0562b0e4cf6b819a12a1b1c8e216a40 FTM0.012514746331
0xae4140bb05aae4e1e31012abc607a171fe93646b2f506576f4fabbd9846bd0bd0xb3d16931195556432021-10-20 3:20:336 hrs 39 mins ago0x8b6791286b068e1d753f87c3a772d461a60a5b71OUT 0xe836817fca0562b0e4cf6b819a12a1b1c8e216a40 FTM0.043186044982
0x9674469b2260a46b00bd45897b8cb25190ed7a05ec6918aecd1d5b1485badb580xb3d16931195554652021-10-20 3:16:416 hrs 43 mins ago0x8b6791286b068e1d753f87c3a772d461a60a5b71OUT 0xe836817fca0562b0e4cf6b819a12a1b1c8e216a40 FTM0.011657746992
0x76ca7b9de042413c422b38915355ae39ee1b4285853483ee56e21b41a89f69490xb3d16931195532682021-10-20 2:39:067 hrs 20 mins ago0x8b6791286b068e1d753f87c3a772d461a60a5b71OUT 0xe836817fca0562b0e4cf6b819a12a1b1c8e216a40 FTM0.011493020388
0x0aaaf383aab2ee35d9d867856a49ce1cf6ae8b7f1e78355d93788199f654ce030xb3d16931195509472021-10-20 2:02:247 hrs 57 mins ago0x8b6791286b068e1d753f87c3a772d461a60a5b71OUT 0xe836817fca0562b0e4cf6b819a12a1b1c8e216a40 FTM0.108402788
0xd2dfd98c5482d0450d05665f19fa51041ba3a8026c7cffa6b0be1b7b1fd7eebd0xb3d16931195476852021-10-20 1:10:288 hrs 49 mins ago0x8b6791286b068e1d753f87c3a772d461a60a5b71OUT 0xe836817fca0562b0e4cf6b819a12a1b1c8e216a40 FTM0.00895726072
0x0d49f3a4b993b9168abfc9a9d0ac172bfc7e395ac955cfe1a3d2812d42d633780xb3d16931195446802021-10-20 0:13:449 hrs 46 mins ago0x8b6791286b068e1d753f87c3a772d461a60a5b71OUT 0xe836817fca0562b0e4cf6b819a12a1b1c8e216a40 FTM0.011608499878
0x987fde9b92970c214c7d87f0409b6e4b0102795cd6bde2002ef9e2f5f6d132ad0xb3d16931195408572021-10-19 23:08:3310 hrs 51 mins ago0x8b6791286b068e1d753f87c3a772d461a60a5b71OUT 0xe836817fca0562b0e4cf6b819a12a1b1c8e216a40 FTM0.027622176678
0xffd69174a11e3de6ddfb10f8c1a5b0a8f5180666431e571c6105225b0d60c17a0xb3d16931195388692021-10-19 22:38:0611 hrs 21 mins ago0x8b6791286b068e1d753f87c3a772d461a60a5b71OUT 0xe836817fca0562b0e4cf6b819a12a1b1c8e216a40 FTM0.013690518347
0x62983083619dc44125b1a0184b18dada5a104ea84a0ed0502dbc4499c16878c10xb3d16931195370902021-10-19 22:10:0611 hrs 49 mins ago0x8b6791286b068e1d753f87c3a772d461a60a5b71OUT 0xe836817fca0562b0e4cf6b819a12a1b1c8e216a40 FTM0.025084241846
0x0ab27ab123dea7ae57a92604c8daa4e83073803413876cd3a9570794ffeb1e9d0xb3d16931195353722021-10-19 21:38:5912 hrs 20 mins ago0x8b6791286b068e1d753f87c3a772d461a60a5b71OUT 0xe836817fca0562b0e4cf6b819a12a1b1c8e216a40 FTM0.010513256194
0x06315691682bc1295ba0ac6f4d03cc9774234ac435c3bd65b513dee24016d45c0xb3d16931195328512021-10-19 21:02:2712 hrs 57 mins ago0x8b6791286b068e1d753f87c3a772d461a60a5b71OUT 0xe836817fca0562b0e4cf6b819a12a1b1c8e216a40 FTM0.015385
0x94ef333adc4e57c050f02c36f091634408a87c139df9ae18ef67f1f428f44ffa0xb3d16931195294362021-10-19 20:13:1713 hrs 46 mins ago0x8b6791286b068e1d753f87c3a772d461a60a5b71OUT 0xe836817fca0562b0e4cf6b819a12a1b1c8e216a40 FTM0.023529924749
0xe20e7f0a8d640362f2d9b5c66e9605f236c998a320bd3ab71be572dddd066dd00xb3d16931195281282021-10-19 19:53:0614 hrs 6 mins ago0x8b6791286b068e1d753f87c3a772d461a60a5b71OUT 0xe836817fca0562b0e4cf6b819a12a1b1c8e216a40 FTM0.016846828807
0xe32d1698aebf1146775f0a6c93865188c41a8cd3a6b56885c1fad210c479ee350xb3d16931195256522021-10-19 19:19:0014 hrs 40 mins ago0x8b6791286b068e1d753f87c3a772d461a60a5b71OUT 0xe836817fca0562b0e4cf6b819a12a1b1c8e216a40 FTM0.022821134474
0xa36f11963423c400e040b9e397707428cd45883d076c4a77d013db8eb40bf4e20xb3d16931195238842021-10-19 18:54:0915 hrs 5 mins ago0x8b6791286b068e1d753f87c3a772d461a60a5b71OUT 0xe836817fca0562b0e4cf6b819a12a1b1c8e216a40 FTM0.020988144322
0xd10f572999a1a30537b6b1264e95a62f43b5314bd7f8e65544ca124042127fc50xb3d16931195212642021-10-19 18:15:5415 hrs 43 mins ago0x8b6791286b068e1d753f87c3a772d461a60a5b71OUT 0xe836817fca0562b0e4cf6b819a12a1b1c8e216a40 FTM0.054397311519
[ Download CSV Export 
Latest 9 internal transactions
Parent Txn Hash Block From To Value
0xca1c448a7b2f1e6144635cd88a130c494b40a78d7b8d177ada829db0b625171b187850272021-10-10 22:16:519 days 11 hrs ago 0x2aebec482a121e9181c6f4300d895781992efbed0x8b6791286b068e1d753f87c3a772d461a60a5b7130 FTM
0x883c056a811cbded85b709bed853567f1f2d45bc7b590f80e73cf850511d5c97181024802021-10-02 0:37:4818 days 9 hrs ago 0x2aebec482a121e9181c6f4300d895781992efbed0x8b6791286b068e1d753f87c3a772d461a60a5b7120 FTM
0xc3ddabeba4a47f252ccbbd88d6db104d083f99eb08776bd8e8504906d39c32b0170063302021-09-13 16:23:4236 days 17 hrs ago 0x2aebec482a121e9181c6f4300d895781992efbed0x8b6791286b068e1d753f87c3a772d461a60a5b7120 FTM
0x0d6e772783f7e6847e609ad0e89f17ac7e0693900e7925bab1527fda88205dcb166034702021-09-07 15:24:1142 days 18 hrs ago 0x2aebec482a121e9181c6f4300d895781992efbed0x8b6791286b068e1d753f87c3a772d461a60a5b7110 FTM
0x09ba97008d4c557792a3db99cf19e9581e851c85e0f67c93a5f0282f114dbf66159028332021-08-30 10:49:5550 days 23 hrs ago 0xda0d3a83653b5b49f972484ab92ae883d8619e110x8b6791286b068e1d753f87c3a772d461a60a5b7110 FTM
0xe163674a8ce92f73337d6739a2da430c59a0e27368f5cc4068ac3953b968b7d7145626652021-08-14 8:05:2967 days 1 hr ago 0xda0d3a83653b5b49f972484ab92ae883d8619e110x8b6791286b068e1d753f87c3a772d461a60a5b715 FTM
0x34e2375d3a34913d29cdfac0c4dce389d84c931240e2b5a2edb613a7f0ed994a129621672021-07-26 7:09:4186 days 2 hrs ago 0xda0d3a83653b5b49f972484ab92ae883d8619e110x8b6791286b068e1d753f87c3a772d461a60a5b715 FTM
0x60b4985d734b8ae35b0033e4ba1a303c386abee3505fc422749ad6997ef0a01f124931312021-07-20 3:47:2092 days 6 hrs ago 0xda0d3a83653b5b49f972484ab92ae883d8619e110x8b6791286b068e1d753f87c3a772d461a60a5b715 FTM
0x816d46b60a10c05634489e99be9016a4532ad84b4c5bbc337bac6eb98c4ebf4d111921892021-07-03 3:55:43109 days 6 hrs ago 0xda0d3a83653b5b49f972484ab92ae883d8619e110x8b6791286b068e1d753f87c3a772d461a60a5b715 FTM
[ Download CSV Export 
Loading

Contract Name:
0 FTM

Compiler Version
0

Optimization Enabled:
0 FTM

Other Settings:
-NA-
Block Transaction Gas Used Reward
Age Block Fee Address BC Fee Address Voting Power Jailed Incoming
Validator ID :
0 FTM

Amount Staked
0

Amount Delegated
0

Staking Total
0

Staking Start Epoch
0

Staking Start Time
0

Proof of Importance
0

Origination Score
0

Validation Score
0

Active
0

Online
0

Downtime
0 s
Address Amount claimed Rewards Created On Epoch Created On
Block Uncle Number Difficulty Gas Used Reward
Loading
Loading
Make sure to use the "Vote Down" button for any spammy posts, and the "Vote Up" for interesting conversations.